• In Belarus
  • List of Countries
  • For 7 days
  • Water Temperature
  • Weather Map
  • Weather Widgets
  • user-avatar
    Login

    Hourly Weather Tantari

    Today, 12 November, Tuesday

    Time Temperature Precipitation Wind Pressure Humidity
    00:00 +13°C° 0 mm 1 mps 725 mmHg 33%
    01:00 +13°C° 0 mm 1 mps 725 mmHg 33%
    02:00 +13°C° 0 mm 1 mps 725 mmHg 33%
    03:00 +13°C° 0 mm 2 mps 725 mmHg 34%
    04:00 +13°C° 0 mm 2 mps 725 mmHg 33%
    05:00 +12°C° 0 mm 1 mps 725 mmHg 32%
    06:00 +12°C° 0 mm 1 mps 725 mmHg 32%
    07:00 +13°C° 0 mm 1 mps 726 mmHg 31%
    08:00 +15°C° 0 mm 1 mps 726 mmHg 30%
    09:00 +18°C° 0 mm 1 mps 727 mmHg 28%
    10:00 +19°C° 0 mm 1 mps 727 mmHg 27%
    11:00 +20°C° 0 mm 1 mps 726 mmHg 26%
    12:00 +21°C° 0 mm 1 mps 726 mmHg 25%
    13:00 +20°C° 0 mm 1 mps 726 mmHg 27%
    14:00 +20°C° 0 mm 1 mps 726 mmHg 30%
    15:00 +20°C° 0 mm 1 mps 726 mmHg 33%
    16:00 +18°C° 0 mm 1 mps 726 mmHg 37%
    17:00 +16°C° 0 mm 1 mps 726 mmHg 42%
    18:00 +13°C° 0 mm 0 mps 726 mmHg 46%
    19:00 +13°C° 0 mm 0 mps 726 mmHg 46%
    20:00 +13°C° 0 mm 0 mps 726 mmHg 46%
    21:00 +12°C° 0 mm 0 mps 726 mmHg 46%
    22:00 +12°C° 0 mm 0 mps 726 mmHg 45%
    23:00 +13°C° 0 mm 1 mps 726 mmHg 45%

    Tomorrow, 13 November, Wednesday

    Time Temperature Precipitation Wind Pressure Humidity
    00:00 +12°C° 0 mm 1 mps 726 mmHg 44%
    01:00 +12°C° 0 mm 1 mps 726 mmHg 44%
    02:00 +12°C° 0 mm 1 mps 726 mmHg 43%
    03:00 +12°C° 0 mm 1 mps 726 mmHg 43%
    04:00 +12°C° 0 mm 1 mps 726 mmHg 43%
    05:00 +12°C° 0 mm 1 mps 726 mmHg 43%
    06:00 +11°C° 0 mm 1 mps 726 mmHg 43%
    07:00 +12°C° 0 mm 0 mps 726 mmHg 41%
    08:00 +13°C° 0 mm 0 mps 727 mmHg 40%
    09:00 +14°C° 0 mm 0 mps 727 mmHg 39%
    10:00 +14°C° 0 mm 0 mps 727 mmHg 38%
    11:00 +16°C° 0 mm 1 mps 727 mmHg 38%
    12:00 +18°C° 0 mm 1 mps 726 mmHg 37%
    13:00 +18°C° 0 mm 1 mps 726 mmHg 40%
    14:00 +18°C° 0 mm 1 mps 726 mmHg 42%
    15:00 +16°C° 0 mm 1 mps 726 mmHg 45%
    16:00 +15°C° 0 mm 1 mps 726 mmHg 52%
    17:00 +13°C° 0 mm 1 mps 726 mmHg 59%
    18:00 +11°C° 0 mm 0 mps 726 mmHg 66%
    19:00 +11°C° 0 mm 0 mps 726 mmHg 65%
    20:00 +10°C° 0 mm 0 mps 726 mmHg 64%
    21:00 +10°C° 0 mm 0 mps 726 mmHg 63%
    22:00 +10°C° 0 mm 0 mps 726 mmHg 62%
    23:00 +9°C° 0 mm 0 mps 726 mmHg 62%

    Day after tomorrow, 14 November, Thursday

    Time Temperature Precipitation Wind Pressure Humidity
    00:00 +10°C° 0 mm 1 mps 726 mmHg 61%
    01:00 +9°C° 0 mm 0 mps 726 mmHg 61%
    02:00 +9°C° 0 mm 0 mps 726 mmHg 62%
    03:00 +8°C° 0 mm 0 mps 726 mmHg 62%
    04:00 +8°C° 0 mm 0 mps 725 mmHg 61%
    05:00 +8°C° 0 mm 0 mps 725 mmHg 61%
    06:00 +8°C° 0 mm 0 mps 725 mmHg 60%
    07:00 +9°C° 0 mm 0 mps 726 mmHg 58%
    08:00 +10°C° 0 mm 0 mps 726 mmHg 56%
    09:00 +11°C° 0 mm 0 mps 727 mmHg 55%
    10:00 +12°C° 0 mm 1 mps 727 mmHg 54%
    11:00 +13°C° 0 mm 1 mps 727 mmHg 53%
    12:00 +14°C° 0 mm 2 mps 727 mmHg 53%
    13:00 +13°C° 0 mm 2 mps 726 mmHg 58%
    14:00 +13°C° 0 mm 1 mps 726 mmHg 64%
    15:00 +13°C° 0 mm 1 mps 726 mmHg 69%
    16:00 +11°C° 0 mm 1 mps 726 mmHg 75%
    17:00 +10°C° 0 mm 1 mps 726 mmHg 80%
    18:00 +9°C° 0 mm 1 mps 727 mmHg 86%
    19:00 +9°C° 0 mm 1 mps 727 mmHg 85%
    20:00 +8°C° 0 mm 1 mps 727 mmHg 85%
    21:00 +8°C° 0 mm 1 mps 727 mmHg 84%
    22:00 +8°C° 0 mm 1 mps 727 mmHg 83%
    23:00 +7°C° 0 mm 0 mps 727 mmHg 82%

    15 November, Friday

    Time Temperature Precipitation Wind Pressure Humidity
    00:00 +7°C° 0 mm 0 mps 727 mmHg 81%
    01:00 +8°C° 0 mm 1 mps 727 mmHg 81%
    02:00 +7°C° 0 mm 1 mps 727 mmHg 82%
    03:00 +7°C° 0 mm 1 mps 727 mmHg 82%
    04:00 +7°C° 0 mm 1 mps 727 mmHg 82%
    05:00 +7°C° 0 mm 1 mps 727 mmHg 82%
    06:00 +6°C° 0 mm 1 mps 727 mmHg 82%
    07:00 +7°C° 0 mm 1 mps 727 mmHg 80%
    08:00 +6°C° 0 mm 2 mps 728 mmHg 77%
    09:00 +7°C° 0 mm 2 mps 728 mmHg 74%
    10:00 +8°C° 0 mm 2 mps 728 mmHg 68%
    11:00 +9°C° 0 mm 2 mps 728 mmHg 61%
    12:00 +10°C° 0 mm 2 mps 728 mmHg 55%
    13:00 +10°C° 0 mm 2 mps 727 mmHg 58%
    14:00 +9°C° 0 mm 2 mps 727 mmHg 60%
    15:00 +9°C° 0 mm 2 mps 727 mmHg 62%
    16:00 +8°C° 0 mm 2 mps 728 mmHg 70%
    17:00 +7°C° 0 mm 2 mps 728 mmHg 78%
    18:00 +6°C° 0 mm 1 mps 728 mmHg 86%
    19:00 +6°C° 0 mm 1 mps 728 mmHg 87%
    20:00 +6°C° 0 mm 1 mps 728 mmHg 88%
    21:00 +6°C° 0 mm 1 mps 728 mmHg 88%
    22:00 +6°C° 0 mm 1 mps 728 mmHg 88%
    23:00 +6°C° 0 mm 1 mps 728 mmHg 88%

    16 November, Saturday

    Time Temperature Precipitation Wind Pressure Humidity
    00:00 +5°C° 0 mm 1 mps 728 mmHg 87%
    01:00 +5°C° 0 mm 1 mps 728 mmHg 87%
    02:00 +5°C° 0 mm 1 mps 728 mmHg 86%
    03:00 +5°C° 0 mm 1 mps 728 mmHg 86%
    04:00 +5°C° 0 mm 1 mps 728 mmHg 85%
    05:00 +5°C° 0 mm 1 mps 728 mmHg 85%
    06:00 +4°C° 0 mm 1 mps 728 mmHg 84%
    07:00 +4°C° 0 mm 2 mps 728 mmHg 78%
    08:00 +5°C° 0 mm 2 mps 729 mmHg 72%
    09:00 +6°C° 0 mm 2 mps 729 mmHg 66%
    10:00 +7°C° 0 mm 2 mps 729 mmHg 61%
    11:00 +8°C° 0 mm 3 mps 729 mmHg 55%
    12:00 +9°C° 0 mm 3 mps 729 mmHg 49%
    13:00 +9°C° 0 mm 3 mps 729 mmHg 50%
    14:00 +9°C° 0 mm 3 mps 729 mmHg 52%
    15:00 +9°C° 0 mm 3 mps 729 mmHg 53%
    16:00 +8°C° 0 mm 2 mps 729 mmHg 60%
    17:00 +6°C° 0 mm 2 mps 729 mmHg 67%
    18:00 +5°C° 0 mm 2 mps 729 mmHg 75%
    19:00 +5°C° 0 mm 2 mps 729 mmHg 71%
    20:00 +5°C° 0 mm 2 mps 729 mmHg 68%
    21:00 +6°C° 0 mm 1 mps 729 mmHg 65%
    22:00 +5°C° 0 mm 2 mps 729 mmHg 60%
    23:00 +5°C° 0 mm 2 mps 729 mmHg 56%

    17 November, Sunday

    Time Temperature Precipitation Wind Pressure Humidity
    00:00 +6°C° 0 mm 2 mps 729 mmHg 51%
    01:00 +6°C° 0 mm 2 mps 729 mmHg 48%
    02:00 +6°C° 0 mm 2 mps 729 mmHg 45%
    03:00 +6°C° 0 mm 2 mps 728 mmHg 42%
    04:00 +6°C° 0 mm 2 mps 728 mmHg 41%
    05:00 +6°C° 0 mm 2 mps 728 mmHg 41%
    06:00 +6°C° 0 mm 2 mps 728 mmHg 40%
    07:00 +7°C° 0 mm 2 mps 729 mmHg 37%
    08:00 +9°C° 0 mm 1 mps 729 mmHg 35%
    09:00 +10°C° 0 mm 1 mps 729 mmHg 33%
    10:00 +10°C° 0 mm 2 mps 729 mmHg 34%
    11:00 +12°C° 0 mm 2 mps 729 mmHg 35%
    12:00 +14°C° 0 mm 2 mps 729 mmHg 35%
    13:00 +13°C° 0 mm 2 mps 729 mmHg 40%
    14:00 +13°C° 0 mm 2 mps 728 mmHg 45%
    15:00 +13°C° 0 mm 2 mps 728 mmHg 50%
    16:00 +12°C° 0 mm 2 mps 728 mmHg 58%
    17:00 +9°C° 0 mm 2 mps 728 mmHg 67%
    18:00 +9°C° 0 mm 1 mps 728 mmHg 75%
    19:00 +8°C° 0 mm 1 mps 728 mmHg 74%
    20:00 +8°C° 0 mm 1 mps 728 mmHg 73%
    21:00 +8°C° 0 mm 1 mps 728 mmHg 72%
    22:00 +8°C° 0 mm 1 mps 728 mmHg 70%
    23:00 +8°C° 0 mm 1 mps 728 mmHg 68%
    Show more